Location: Downe
(51.3167°N, 0.0500°E)
Time: 18:23:24
(UTC+00:00)

ISS - Visible Passes

Search period start: 19 January 2020 00:00
Search period end: 29 January 2020 00:00
Orbit: 415 x 421 km, 51.6° (Epoch: 20 January)

Date Brightness Start Highest point End Pass type
(mag) Time Alt. Az. Time Alt. Az. Time Alt. Az.
20 Jan -0.9 18:59:42 10° S 18:59:47 10° S 18:59:47 10° S visible
21 Jan -1.4 18:12:47 10° SSE 18:14:04 13° SE 18:14:04 13° SE visible
22 Jan -1.9 18:59:31 10° SW 19:01:13 24° SSW 19:01:13 24° SSW visible
23 Jan -2.4 18:11:54 10° SSW 18:14:45 25° SSE 18:15:21 24° SE visible
23 Jan -0.5 19:47:51 10° WSW 19:48:17 13° WSW 19:48:17 13° WSW visible
24 Jan -1.8 17:24:31 10° S 17:26:54 18° SE 17:29:17 10° E visible
24 Jan -2.7 18:59:53 10° WSW 19:02:21 43° SW 19:02:21 43° SW visible
25 Jan -3.3 18:12:00 10° SW 18:15:15 47° SSE 18:16:22 32° ESE visible
25 Jan -0.7 19:48:34 10° W 19:49:18 16° W 19:49:18 16° W visible
26 Jan -2.7 17:24:12 10° SW 17:27:18 35° SSE 17:30:19 10° E visible
26 Jan -3.1 19:00:31 10° W 19:03:15 56° WSW 19:03:15 56° WSW visible
27 Jan -3.8 18:12:28 10° WSW 18:15:51 77° SSE 18:17:11 33° E visible
27 Jan -0.7 19:49:16 10° W 19:50:07 17° W 19:50:07 17° W visible
28 Jan -3.5 17:24:29 10° WSW 17:27:48 61° SSE 17:31:06 10° E visible
28 Jan -3.3 19:01:12 10° W 19:04:01 59° WNW 19:04:01 59° WNW visible
